FW6905 Weather Reports


Display with metric or nautical units.
time (UTC)temp
F
wind
direction
speed
MPH
gust
MPH
rain 1hr
in
rain 24hr
in
rain mn
in
humidity
%
barometer
mb
20260906212505 67 273 2.0 3.0 0.00 0.00 0.00 67 1024.8
20260906211007 67 21 0.0 2.0 0.00 0.00 0.00 66 1025.8
20260906210506 67 158 0.0 2.0 0.00 0.00 0.00 66 1025.8
20260906205507 68 174 0.0 2.0 0.00 0.00 0.00 65 1025.8
20260906205006 68 220 0.0 2.0 0.00 0.00 0.00 65 1025.8
20260906204506 68 283 0.0 2.0 0.00 0.00 0.00 65 1025.8
20260906204007 68 83 1.0 2.0 0.00 0.00 0.00 63 1025.8
20260906203506 68 73 0.0 3.0 0.00 0.00 0.00 63 1025.8
20260906203006 68 90 1.0 3.0 0.00 0.00 0.00 63 1025.8
20260906202507 68 118 1.0 2.0 0.00 0.00 0.00 63 1025.8
20260906202006 69 39 0.0 2.0 0.00 0.00 0.00 63 1025.8
20260906201507 69 109 1.0 2.0 0.00 0.00 0.00 62 1025.8
20260906201007 69 96 1.0 2.0 0.00 0.00 0.00 62 1025.8
20260906200506 69 90 0.0 3.0 0.00 0.00 0.00 62 1025.8
20260906200007 69 77 0.0 3.0 0.00 0.00 0.00 61 1025.8
20260906194506 69 132 0.0 2.0 0.00 0.00 0.00 60 1025.8
20260906194007 69 78 0.0 2.0 0.00 0.00 0.00 60 1025.8
20260906193506 70 81 2.0 3.0 0.00 0.00 0.00 59 1025.8
20260906193006 70 99 2.0 3.0 0.00 0.00 0.00 58 1025.8
20260906192507 70 144 2.0 3.0 0.00 0.00 0.00 58 1025.8
20260906192006 70 170 0.0 2.0 0.00 0.00 0.00 58 1025.8
20260906191006 71 45 0.0 2.0 0.00 0.00 0.00 56 1025.8
20260906190507 71 45 0.0 2.0 0.00 0.00 0.00 56 1025.8
20260906190006 71 119 0.0 2.0 0.00 0.00 0.00 56 1025.8
20260906185507 72 116 2.0 2.0 0.00 0.00 0.00 56 1024.8
20260906185007 72 55 2.0 2.0 0.00 0.00 0.00 55 1024.8
20260906184506 72 45 0.0 3.0 0.00 0.00 0.00 53 1024.8
20260906183506 73 76 4.0 5.0 0.00 0.00 0.00 52 1024.8
20260906183007 73 144 2.0 2.0 0.00 0.00 0.00 51 1024.8
20260906182506 73 170 1.0 2.0 0.00 0.00 0.00 50 1024.8
20260906182007 74 208 2.0 2.0 0.00 0.00 0.00 50 1024.8
20260906181506 74 273 2.0 2.0 0.00 0.00 0.00 49 1024.8
20260906181006 75 67 0.0 4.0 0.00 0.00 0.00 47 1024.8
20260906180507 75 76 1.0 4.0 0.00 0.00 0.00 47 1024.8
20260906175007 76 46 0.0 2.0 0.00 0.00 0.00 45 1024.8
20260906174506 77 45 0.0 2.0 0.00 0.00 0.00 45 1024.8
20260906173506 78 5 0.0 2.0 0.00 0.00 0.00 43 1024.8
20260906173007 78 0 0.0 0.0 0.00 0.00 0.00 42 1024.8
20260906172506 79 46 0.0 2.0 0.00 0.00 0.00 42 1024.8
20260906172006 80 45 0.0 2.0 0.00 0.00 0.00 40 1024.8
20260906171506 80 55 0.0 2.0 0.00 0.00 0.00 40 1024.8
20260906171006 81 101 0.0 2.0 0.00 0.00 0.00 39 1023.8
20260906170507 81 133 2.0 2.0 0.00 0.00 0.00 38 1023.8
20260906170006 82 231 2.0 3.0 0.00 0.00 0.00 38 1023.8
20260906165007 83 272 1.0 2.0 0.00 0.00 0.00 36 1024.8
20260906164506 84 308 2.0 2.0 0.00 0.00 0.00 36 1024.8
20260906164007 84 288 0.0 3.0 0.00 0.00 0.00 34 1023.8
20260906163506 85 283 2.0 4.0 0.00 0.00 0.00 34 1023.8
20260906163007 85 292 0.0 5.0 0.00 0.00 0.00 34 1023.8
20260906161507 86 121 1.0 2.0 0.00 0.00 0.00 33 1023.8
20260906161006 86 99 1.0 4.0 0.00 0.00 0.00 32 1023.8
20260906160506 86 42 2.0 9.0 0.00 0.00 0.00 32 1023.8
20260906160006 87 35 2.0 9.0 0.00 0.00 0.00 31 1023.8
20260906155506 87 45 4.0 5.0 0.00 0.00 0.00 31 1023.8
20260906155006 87 35 2.0 6.0 0.00 0.00 0.00 31 1023.8
20260906154506 87 41 3.0 6.0 0.00 0.00 0.00 30 1023.8
20260906154006 87 32 3.0 4.0 0.00 0.00 0.00 30 1023.8
20260906153506 87 37 1.0 7.0 0.00 0.00 0.00 30 1023.8
20260906153006 88 36 2.0 7.0 0.00 0.00 0.00 31 1023.8
20260906152506 88 30 5.0 7.0 0.00 0.00 0.00 30 1023.8
20260906151506 88 31 5.0 8.0 0.00 0.00 0.00 30 1023.8
20260906151006 88 20 6.0 10.0 0.00 0.00 0.00 30 1023.8
20260906150506 88 24 7.0 10.0 0.00 0.00 0.00 30 1023.8
20260906150007 88 47 5.0 9.0 0.00 0.00 0.00 30 1023.8
20260906145506 88 49 2.0 8.0 0.00 0.00 0.00 30 1023.8
20260906145006 88 42 3.0 6.0 0.00 0.00 0.00 30 1023.8
20260906144506 88 37 3.0 9.0 0.00 0.00 0.00 30 1023.8
20260906144006 88 39 4.0 9.0 0.00 0.00 0.00 30 1023.8
20260906143506 88 49 5.0 7.0 0.00 0.00 0.00 30 1023.8
20260906143006 88 50 2.0 7.0 0.00 0.00 0.00 30 1023.8
20260906142506 88 39 4.0 7.0 0.00 0.00 0.00 30 1023.8
20260906141006 88 89 4.0 6.0 0.00 0.00 0.00 30 1023.8
20260906140006 89 73 4.0 6.0 0.00 0.00 0.00 30 1023.8
20260906135006 89 104 2.0 6.0 0.00 0.00 0.00 31 1023.8
20260906134506 89 90 2.0 6.0 0.00 0.00 0.00 30 1023.8
20260906134006 88 106 2.0 6.0 0.00 0.00 0.00 31 1024.8
20260906133506 88 94 4.0 9.0 0.00 0.00 0.00 30 1024.8
20260906133007 88 64 6.0 11.0 0.00 0.00 0.00 30 1024.8
20260906132506 88 51 4.0 11.0 0.00 0.00 0.00 30 1024.8
20260906132006 89 61 4.0 11.0 0.00 0.00 0.00 30 1024.8
20260906131506 89 83 6.0 11.0 0.00 0.00 0.00 31 1024.8
20260906131006 89 79 4.0 9.0 0.00 0.00 0.00 31 1024.8
20260906130506 88 54 6.0 9.0 0.00 0.00 0.00 31 1024.8
20260906130006 89 68 4.0 8.0 0.00 0.00 0.00 31 1024.8
20260906125506 89 81 5.0 8.0 0.00 0.00 0.00 31 1024.8
20260906124506 89 55 3.0 8.0 0.00 0.00 0.00 31 1024.8
20260906124006 88 51 5.0 12.0 0.00 0.00 0.00 31 1024.8
20260906123506 88 55 8.0 12.0 0.00 0.00 0.00 31 1024.8
20260906123006 88 59 5.0 9.0 0.00 0.00 0.00 31 1024.8
20260906122506 88 49 7.0 9.0 0.00 0.00 0.00 32 1024.8
20260906122007 88 45 3.0 11.0 0.00 0.00 0.00 31 1024.8
20260906121506 88 46 5.0 11.0 0.00 0.00 0.00 32 1024.8
20260906121007 88 46 4.0 9.0 0.00 0.00 0.00 32 1024.8
20260906120506 88 50 3.0 10.0 0.00 0.00 0.00 32 1024.8
20260906120006 87 49 6.0 10.0 0.00 0.00 0.00 32 1024.8
20260906115506 87 49 7.0 12.0 0.00 0.00 0.00 32 1024.8
20260906115006 87 52 7.0 12.0 0.00 0.00 0.00 32 1024.8
20260906114506 87 59 3.0 14.0 0.00 0.00 0.00 32 1024.8
20260906114007 87 56 8.0 14.0 0.00 0.00 0.00 33 1024.8
20260906113506 87 43 8.0 11.0 0.00 0.00 0.00 32 1024.8
20260906113006 87 39 6.0 11.0 0.00 0.00 0.00 33 1024.8
20260906112506 87 48 6.0 13.0 0.00 0.00 0.00 33 1024.8
20260906112006 87 52 7.0 13.0 0.00 0.00 0.00 33 1024.8
20260906111506 87 58 6.0 13.0 0.00 0.00 0.00 33 1024.8
20260906111006 86 44 7.0 12.0 0.00 0.00 0.00 34 1024.8
20260906110505 86 45 4.0 11.0 0.00 0.00 0.00 33 1024.8
20260906110006 86 53 6.0 14.0 0.00 0.00 0.00 33 1024.8
20260906105506 86 51 3.0 14.0 0.00 0.00 0.00 33 1024.8
20260906105006 86 49 8.0 16.0 0.00 0.00 0.00 34 1024.8
20260906104506 86 36 5.0 16.0 0.00 0.00 0.00 34 1024.8
20260906104006 85 45 8.0 12.0 0.00 0.00 0.00 34 1025.8
20260906103506 85 54 5.0 12.0 0.00 0.00 0.00 34 1025.8
20260906103006 85 51 4.0 14.0 0.00 0.00 0.00 34 1025.8
20260906102506 85 51 10.0 14.0 0.00 0.00 0.00 34 1025.8
20260906102006 85 46 6.0 12.0 0.00 0.00 0.00 34 1025.8
20260906101506 85 48 4.0 12.0 0.00 0.00 0.00 34 1025.8
20260906101006 84 52 6.0 13.0 0.00 0.00 0.00 34 1025.8
20260906100506 84 50 5.0 13.0 0.00 0.00 0.00 34 1025.8
20260906100006 84 50 9.0 15.0 0.00 0.00 0.00 34 1025.8
20260906095506 84 54 9.0 15.0 0.00 0.00 0.00 34 1025.8
20260906095006 84 57 6.0 14.0 0.00 0.00 0.00 36 1025.8
20260906094506 83 59 10.0 14.0 0.00 0.00 0.00 35 1025.8
20260906094006 83 52 8.0 17.0 0.00 0.00 0.00 36 1025.8
20260906093506 83 44 6.0 17.0 0.00 0.00 0.00 36 1025.8
20260906093006 83 46 8.0 14.0 0.00 0.00 0.00 36 1025.8
20260906092506 83 46 9.0 14.0 0.00 0.00 0.00 36 1025.8
20260906092006 83 40 8.0 14.0 0.00 0.00 0.00 36 1025.8
20260906091006 83 41 4.0 14.0 0.00 0.00 0.00 37 1025.8
20260906090506 82 43 8.0 14.0 0.00 0.00 0.00 37 1025.8
20260906090007 82 60 3.0 14.0 0.00 0.00 0.00 37 1025.8
20260906085506 82 50 8.0 15.0 0.00 0.00 0.00 37 1024.8
20260906085006 81 45 10.0 15.0 0.00 0.00 0.00 37 1024.8
20260906084506 81 45 5.0 18.0 0.00 0.00 0.00 38 1024.8
20260906084006 81 30 8.0 18.0 0.00 0.00 0.00 37 1024.8
20260906083506 81 34 8.0 14.0 0.00 0.00 0.00 37 1024.8
20260906083006 81 46 8.0 16.0 0.00 0.00 0.00 37 1024.8
20260906082506 81 53 6.0 16.0 0.00 0.00 0.00 37 1025.8
20260906082006 81 42 7.0 13.0 0.00 0.00 0.00 38 1025.8
20260906081506 80 33 4.0 12.0 0.00 0.00 0.00 38 1025.8
20260906081006 80 51 6.0 15.0 0.00 0.00 0.00 38 1025.8
20260906080506 80 59 5.0 15.0 0.00 0.00 0.00 38 1025.8
20260906080006 80 33 1.0 12.0 0.00 0.00 0.00 39 1025.8
20260906075506 80 19 5.0 17.0 0.00 0.00 0.00 38 1025.8
20260906075005 79 25 8.0 17.0 0.00 0.00 0.00 39 1025.8
20260906074006 79 2 6.0 15.0 0.00 0.00 0.00 40 1024.8
20260906073508 79 28 6.0 15.0 0.00 0.00 0.00 39 1024.8
20260906073009 79 46 6.0 18.0 0.00 0.00 0.00 39 1024.8
20260906072506 78 47 5.0 18.0 0.00 0.00 0.00 40 1025.8
20260906072006 78 20 8.0 14.0 0.00 0.00 0.00 40 1025.8
20260906071506 78 12 4.0 14.0 0.00 0.00 0.00 40 1025.8
20260906071006 78 6 5.0 12.0 0.00 0.00 0.00 40 1025.8
20260906070506 78 337 5.0 15.0 0.00 0.00 0.00 40 1025.8
20260906070005 77 347 8.0 15.0 0.00 0.00 0.00 40 1025.8
20260906065506 77 12 6.0 11.0 0.00 0.00 0.00 41 1025.8
20260906064506 77 353 3.0 15.0 0.00 0.00 0.00 42 1025.8
20260906063506 76 348 8.0 18.0 0.00 0.00 0.00 43 1025.8
20260906063006 76 4 6.0 18.0 0.00 0.00 0.00 43 1025.8
20260906062006 76 337 7.0 17.0 0.00 0.00 0.00 42 1025.8
20260906061506 76 348 2.0 17.0 0.00 0.00 0.00 43 1025.8
20260906061006 76 337 2.0 16.0 0.00 0.00 0.00 43 1025.8
20260906060506 76 341 4.0 18.0 0.00 0.00 0.00 43 1025.8
20260906060006 76 357 4.0 18.0 0.00 0.00 0.00 43 1025.8
20260906054006 75 27 4.0 13.0 0.00 0.00 0.00 44 1025.8
20260906053006 75 323 6.0 9.0 0.00 0.00 0.00 44 1025.8
20260906052505 75 338 4.0 12.0 0.00 0.00 0.00 44 1024.8
20260906052006 75 341 5.0 12.0 0.00 0.00 0.00 43 1024.8
20260906051506 75 343 5.0 9.0 0.00 0.00 0.00 44 1024.8
20260906051006 75 334 7.0 9.0 0.00 0.00 0.00 44 1024.8
20260906050506 75 330 1.0 13.0 0.00 0.00 0.00 44 1024.8
20260906050006 75 341 4.0 13.0 0.00 0.00 0.00 43 1024.8
20260906045506 76 346 7.0 12.0 0.00 0.00 0.00 43 1024.8
20260906044506 76 339 6.0 15.0 0.00 0.00 0.00 43 1024.8
20260906044006 76 1 3.0 14.0 0.00 0.00 0.00 43 1024.8
20260906043506 76 10 4.0 12.0 0.00 0.00 0.00 43 1024.8
20260906043006 76 10 6.0 15.0 0.00 0.00 0.00 43 1024.8
20260906042505 76 16 11.0 15.0 0.00 0.00 0.00 43 1024.8
20260906042006 76 16 3.0 11.0 0.00 0.00 0.00 43 1024.8
20260906041505 76 7 4.0 8.0 0.00 0.00 0.00 43 1024.8
20260906041006 76 346 7.0 12.0 0.00 0.00 0.00 43 1023.8
20260906040506 76 12 5.0 12.0 0.00 0.00 0.00 43 1023.8
20260906040006 76 35 4.0 11.0 0.00 0.00 0.00 43 1023.8
20260906035506 76 7 5.0 12.0 0.00 0.00 0.00 43 1023.8
20260906035006 76 7 5.0 13.0 0.00 0.00 0.00 43 1023.8
20260906034506 76 32 7.0 13.0 0.00 0.00 0.00 43 1023.8
20260906034006 77 28 6.0 12.0 0.00 0.00 0.00 43 1023.8
20260906033505 77 39 4.0 12.0 0.00 0.00 0.00 43 1023.8
20260906033006 77 51 3.0 9.0 0.00 0.00 0.00 43 1023.8
20260906032006 77 28 5.0 10.0 0.00 0.00 0.00 42 1023.8
20260906031005 77 355 4.0 12.0 0.00 0.00 0.00 42 1023.8
20260906030506 77 1 7.0 13.0 0.00 0.00 0.00 42 1023.8
20260906030005 77 11 4.0 13.0 0.00 0.00 0.00 43 1023.8
20260906025506 76 342 3.0 11.0 0.00 0.00 0.00 43 1023.8
20260906024506 76 29 2.0 8.0 0.00 0.00 0.00 43 1023.8
20260906024006 76 327 6.0 8.0 0.00 0.00 0.00 43 1023.8
20260906023006 77 355 1.0 9.0 0.00 0.00 0.00 43 1023.8
20260906022506 77 289 4.0 9.0 0.00 0.00 0.00 43 1023.8
20260906022005 77 314 6.0 9.0 0.00 0.00 0.00 41 1023.8
20260906021005 77 321 6.0 7.0 0.00 0.00 0.00 41 1023.8
20260906020005 78 329 3.0 13.0 0.00 0.00 0.00 41 1023.8
20260906015506 78 355 3.0 11.0 0.00 0.00 0.00 41 1023.8
20260906015006 78 328 2.0 11.0 0.00 0.00 0.00 41 1023.8
20260906014506 78 334 4.0 14.0 0.00 0.00 0.00 40 1023.8
20260906014005 78 328 7.0 14.0 0.00 0.00 0.00 40 1023.8
20260906013506 78 315 7.0 15.0 0.00 0.00 0.00 40 1023.8
20260906013005 78 329 7.0 15.0 0.00 0.00 0.00 40 1023.8
20260906012506 78 329 4.0 10.0 0.00 0.00 0.00 41 1022.8
20260906012005 78 328 6.0 20.0 0.00 0.00 0.00 41 1022.8
20260906011005 78 345 11.0 19.0 0.00 0.00 0.00 41 1023.8
20260906010006 78 331 2.0 12.0 0.00 0.00 0.00 41 1023.8
20260906005506 78 333 3.0 12.0 0.00 0.00 0.00 41 1023.8
20260906005006 78 333 5.0 11.0 0.00 0.00 0.00 41 1023.8
20260906004505 78 342 5.0 11.0 0.00 0.00 0.00 41 1023.8
20260906004006 78 349 4.0 9.0 0.00 0.00 0.00 41 1023.8
20260906003006 78 2 3.0 7.0 0.00 0.00 0.00 41 1023.8
20260906002505 78 14 5.0 11.0 0.00 0.00 0.00 41 1023.8
20260906002006 78 14 7.0 11.0 0.00 0.00 0.00 40 1023.8
20260906001505 79 11 3.0 12.0 0.00 0.00 0.00 41 1023.8
20260906001006 79 4 4.0 12.0 0.00 0.00 0.00 40 1023.8
20260906000006 79 32 7.0 13.0 0.00 0.00 0.00 40 1023.8
20260905235505 79 23 5.0 14.0 0.00 0.00 0.00 40 1023.8
20260905235006 79 8 9.0 14.0 0.00 0.00 0.00 40 1023.8
20260905234506 79 359 4.0 8.0 0.00 0.00 0.00 40 1023.8
20260905234005 79 359 3.0 12.0 0.00 0.00 0.00 41 1023.8
20260905233506 79 7 2.0 12.0 0.00 0.00 0.00 40 1023.8
20260905233005 79 14 7.0 11.0 0.00 0.00 0.00 40 1023.8
20260905232506 79 17 6.0 11.0 0.00 0.00 0.00 40 1023.8
20260905232006 80 1 4.0 11.0 0.00 0.00 0.00 40 1023.8
20260905231005 80 7 7.0 18.0 0.00 0.00 0.00 40 1023.8
20260905230506 80 6 4.0 18.0 0.00 0.00 0.00 40 1023.8
20260905230006 80 8 2.0 12.0 0.00 0.00 0.00 40 1023.8
20260905225505 80 18 7.0 12.0 0.00 0.00 0.00 40 1022.8
20260905225006 80 13 4.0 12.0 0.00 0.00 0.00 40 1022.8
20260905224505 80 10 5.0 11.0 0.00 0.00 0.00 40 1022.8
20260905224006 80 18 11.0 12.0 0.00 0.00 0.00 40 1022.8
20260905223505 80 18 4.0 12.0 0.00 0.00 0.00 40 1022.8
20260905223006 80 26 4.0 9.0 0.00 0.00 0.00 39 1022.8
20260905222006 80 19 8.0 12.0 0.00 0.00 0.00 39 1022.8
20260905221006 80 20 8.0 14.0 0.00 0.00 0.00 39 1022.8
20260905220505 80 25 6.0 13.0 0.00 0.00 0.00 40 1022.8
20260905220012 80 25 6.0 13.0 0.00 0.00 0.00 39 1022.8
20260905215506 80 20 7.0 11.0 0.00 0.00 0.00 40 1022.8
20260905215006 80 19 4.0 11.0 0.00 0.00 0.00 40 1022.8
20260905214506 80 18 5.0 11.0 0.00 0.00 0.00 40 1022.8
20260905214006 80 13 6.0 10.0 0.00 0.00 0.00 40 1021.8
20260905213505 81 20 3.0 13.0 0.00 0.00 0.00 39 1021.8